Theta_e
342 342 341 341 341 339 337 339 337 338 341 341 341 341 340 339 341 340 339 336 332 329 325 326 331 332 331 329 321 317 323 327 330 332 333 334 334 334 334 334 334 335 336 336 335 336 336 336 336 336 335 334 333 332 331 330 329 328 328 327 327 328 331 332 334 333 332 332 324 323 329 328 328 328 329 329 329 330 330 331 331 330 331 331 332
342 342 341 341 341 340 340 341 339 340 341 341 341 341 340 340 341 339 339 337 334 331 326 328 332 333 332 330 321 320 327 329 331 331 332 333 333 333 333 333 333 334 335 334 335 335 336 336 335 334 333 332 331 331 330 328 328 327 326 326 326 328 331 332 332 332 332 330 323 323 329 329 330 330 330 330 329 329 330 330 330 329 330 330 330
342 342 341 340 340 341 340 341 340 341 341 342 341 340 340 340 340 339 338 337 336 331 327 330 333 333 332 331 323 321 329 330 331 331 331 331 332 332 332 332 332 332 333 333 334 334 335 335 332 330 330 329 329 329 327 326 326 325 325 324 325 326 329 330 330 330 330 329 327 327 329 329 331 330 330 329 329 329 329 329 329 329 330 330 330
343 342 341 339 339 340 340 341 340 341 341 341 340 340 340 340 339 339 338 337 336 330 328 331 332 332 331 332 326 319 326 330 330 330 330 331 331 331 331 331 331 331 331 332 334 334 334 333 330 328 328 328 328 327 326 326 325 324 324 323 323 324 325 327 327 328 328 328 328 328 328 328 329 330 329 329 329 329 328 328 328 329 329 330 330
342 342 341 340 340 340 340 340 339 340 339 338 339 340 340 340 339 337 336 336 336 330 328 331 331 333 332 332 327 319 324 329 329 329 330 331 330 330 330 330 331 331 331 331 334 334 334 332 329 328 328 326 325 326 327 327 326 324 323 321 320 322 323 325 326 327 326 327 327 327 327 327 328 329 329 328 329 328 328 328 328 329 329 329 329
342 342 342 341 341 340 339 340 339 339 337 334 336 339 339 337 335 334 334 334 334 331 330 332 332 333 331 330 326 321 324 328 329 329 330 330 330 330 330 330 330 330 331 333 334 334 333 330 327 327 326 325 325 327 328 328 326 324 323 318 317 321 324 327 327 327 327 327 327 327 327 327 327 328 328 328 328 328 328 328 328 328 328 328 328
342 342 342 342 342 340 339 339 339 340 337 332 331 336 335 333 332 332 334 335 334 332 331 332 332 331 329 327 324 320 324 327 328 329 330 330 330 330 330 329 330 330 332 334 334 334 332 329 328 328 327 326 326 327 326 326 325 324 321 318 321 324 326 327 327 327 327 327 326 327 326 326 327 327 328 328 327 327 327 327 328 328 327 327 327
342 342 341 342 341 339 339 339 340 339 339 333 328 328 330 330 331 332 334 335 334 332 332 332 333 331 329 326 321 317 319 324 326 329 330 330 330 330 329 328 329 331 332 332 332 332 331 329 329 329 329 329 327 325 324 323 323 321 319 322 325 326 326 326 326 326 327 327 326 326 326 326 327 327 327 327 327 327 326 326 327 326 326 326 326
342 342 342 342 341 339 339 339 340 340 339 335 328 325 327 329 329 332 333 334 335 333 330 331 334 332 330 326 321 317 316 317 321 328 330 330 329 329 329 328 329 331 332 332 331 330 330 331 331 330 329 329 326 324 323 322 321 318 319 324 326 326 326 326 326 326 326 327 326 326 326 326 326 326 327 326 326 326 325 325 325 325 326 326 326
341 343 342 342 340 338 338 338 339 339 339 336 332 326 325 327 327 329 331 334 336 334 331 330 334 333 331 327 322 318 315 312 315 325 330 329 329 328 328 328 329 331 331 331 330 330 330 331 331 330 329 326 323 323 322 321 319 317 321 325 325 326 326 326 327 327 326 326 326 327 326 326 326 326 327 327 326 325 325 324 325 325 325 325 326
341 343 343 342 339 338 338 338 338 339 339 338 336 330 325 325 325 326 330 335 335 335 333 332 333 332 330 328 324 319 316 310 309 322 329 329 329 328 328 328 329 330 330 330 330 330 330 330 329 328 326 324 322 323 322 319 318 320 323 325 325 325 326 326 326 326 326 327 327 326 326 326 327 326 327 327 327 326 326 326 326 325 325 326 326
341 343 343 342 339 338 338 338 339 338 338 338 338 335 327 324 324 325 330 335 335 335 334 333 332 330 330 329 325 320 316 310 306 319 328 329 328 328 328 327 328 330 329 329 330 330 329 328 327 325 323 324 323 323 321 318 320 323 324 325 325 325 326 326 326 327 328 328 328 327 328 328 327 327 327 327 327 327 327 327 327 326 327 327 327
342 342 342 341 339 338 338 338 339 338 338 338 338 336 329 325 324 325 331 335 335 335 334 334 332 330 331 329 326 321 317 311 305 312 324 328 328 327 327 327 328 329 329 329 329 328 327 327 325 324 324 324 324 323 320 319 322 323 325 324 325 325 326 327 327 329 329 329 328 328 329 329 328 328 328 327 327 327 328 328 328 328 327 327 326
341 342 341 341 340 338 338 338 339 338 338 338 338 336 331 327 324 325 331 335 335 334 334 334 332 331 331 329 326 321 317 311 305 310 320 326 327 327 327 327 328 328 328 327 327 326 325 325 325 324 323 323 323 322 320 319 321 323 324 325 324 324 325 325 326 328 328 328 328 328 328 329 329 328 328 327 327 326 327 327 328 327 326 326 325
341 342 341 341 340 338 338 338 338 338 338 338 337 336 332 327 326 327 330 333 334 334 334 334 333 332 331 330 326 321 317 312 309 312 319 323 325 327 327 326 326 326 326 326 325 325 324 324 323 323 323 323 323 322 320 318 319 321 323 325 325 324 324 324 324 325 326 327 328 328 327 328 329 328 328 327 327 326 326 326 326 326 325 325 325
341 342 342 341 341 339 338 338 338 338 338 338 337 337 333 329 328 329 330 332 333 334 333 333 333 332 331 330 327 321 317 313 308 309 316 321 323 324 325 324 325 325 325 324 324 323 324 323 321 322 322 322 322 321 319 318 316 318 322 324 324 324 324 323 323 323 323 324 325 326 326 327 328 328 328 327 327 326 326 326 326 325 325 325 324
341 342 342 342 342 341 339 338 337 337 338 337 337 337 335 331 330 330 330 332 333 333 333 333 333 332 331 330 328 323 318 313 308 306 310 316 320 321 321 321 322 322 321 320 320 320 321 321 321 320 320 320 320 319 319 318 314 315 319 321 322 322 322 322 322 322 322 322 322 324 324 325 326 327 327 327 326 326 326 326 325 325 325 323 322
341 341 342 342 342 341 340 339 338 337 337 337 336 337 336 333 331 330 330 332 332 333 333 333 333 332 331 330 328 325 320 316 310 306 306 309 314 316 315 314 313 312 310 309 310 311 311 314 316 316 316 317 318 317 317 316 312 312 315 318 321 321 321 321 321 321 321 320 320 321 322 322 323 325 325 325 326 325 324 325 324 323 323 321 319
341 341 341 342 342 341 341 340 339 338 338 338 337 337 336 335 334 331 330 332 333 333 333 333 333 332 331 330 329 327 322 320 315 310 305 305 307 307 305 304 303 302 301 301 301 302 302 304 307 308 310 313 315 316 316 314 311 310 311 315 320 321 320 320 320 320 321 321 320 321 321 321 321 322 323 323 324 324 322 322 321 320 319 319 317
341 341 341 341 341 341 341 341 340 339 340 339 338 337 336 336 335 333 331 331 333 333 333 333 333 332 331 330 330 328 323 321 319 315 309 304 302 301 300 300 300 300 300 300 300 300 300 300 301 303 305 307 310 312 313 312 311 308 308 314 319 320 321 321 321 320 321 321 321 322 322 322 322 322 321 321 322 322 321 320 320 319 318 318 317
340 340 341 341 340 341 341 341 340 340 340 339 339 338 336 336 336 335 333 332 332 333 333 333 333 332 331 331 330 328 325 323 321 319 315 310 306 303 301 301 300 300 300 300 300 300 300 300 300 301 302 304 307 308 309 309 307 305 308 316 319 320 321 321 321 321 322 321 321 322 322 322 322 322 321 321 321 320 321 320 320 320 319 318 318
339 339 339 340 340 340 340 341 341 340 340 339 339 339 337 336 336 336 335 333 333 332 333 333 333 333 331 331 330 329 328 326 323 320 318 315 312 308 305 303 302 301 301 300 301 301 301 301 300 301 302 304 306 308 307 306 305 307 313 318 319 319 320 321 321 321 322 322 321 321 321 321 321 321 321 321 321 321 320 320 320 320 318 317 317
337 338 338 339 339 339 339 340 340 340 340 340 339 339 338 337 337 337 336 336 334 333 333 333 333 333 332 332 331 330 330 328 324 322 320 318 315 313 310 308 306 305 305 304 304 305 304 302 301 300 301 302 305 306 306 306 308 313 317 317 317 318 320 320 320 321 321 322 322 322 321 322 322 322 321 321 321 321 320 319 319 319 317 316 316
337 336 336 337 337 338 339 339 339 339 339 339 339 339 339 338 337 337 336 336 336 335 334 333 333 333 332 332 332 331 330 329 326 323 321 319 316 315 314 313 311 309 310 310 309 309 307 304 302 301 302 303 305 305 306 309 312 316 317 317 316 317 318 319 319 320 321 321 322 322 322 322 322 322 321 321 321 320 320 319 318 316 316 315 315
336 336 336 336 336 336 337 338 338 338 338 338 338 339 339 339 338 337 336 336 336 336 334 333 333 333 333 333 332 332 330 329 327 323 321 318 316 314 313 313 312 311 312 313 312 311 310 309 307 307 307 308 309 309 309 311 312 314 316 317 317 316 316 317 318 319 320 321 321 321 322 322 322 322 321 321 320 320 319 318 317 315 314 314 314
335 336 336 335 335 335 335 337 337 337 337 336 337 338 338 338 337 337 336 336 336 336 335 334 333 333 333 333 332 332 330 328 327 325 323 319 316 315 313 313 313 313 313 314 314 313 313 313 313 313 313 313 313 312 311 311 311 311 314 316 317 316 315 316 317 318 319 320 320 320 321 322 322 322 322 321 320 319 319 319 317 316 315 313 313
334 335 335 335 335 335 334 335 336 335 335 335 336 337 337 337 337 337 336 336 336 336 335 334 334 333 333 333 332 332 330 328 327 327 326 322 320 318 316 315 315 314 314 314 314 314 314 314 315 315 315 315 314 313 312 311 310 309 311 314 315 315 315 315 315 316 317 318 318 319 319 319 320 321 321 321 320 319 318 318 317 316 315 314 313
334 334 334 334 334 333 333 334 334 333 334 334 334 334 335 336 336 336 336 336 336 335 335 334 333 333 333 333 333 332 331 329 328 328 327 326 324 322 318 316 316 315 315 315 315 314 314 315 316 315 315 314 313 312 310 309 308 307 309 312 314 314 314 314 314 314 315 316 317 317 317 316 317 318 319 319 319 318 317 317 315 314 314 314 313
334 333 333 334 334 332 332 333 333 333 333 333 332 333 333 334 334 335 336 336 336 336 335 334 333 333 333 333 332 332 331 330 329 329 328 327 326 323 318 317 317 316 316 316 316 315 315 316 314 313 313 313 312 310 309 307 305 305 306 309 312 313 313 313 313 313 313 315 315 316 316 315 314 315 316 316 317 316 316 316 315 313 313 313 312
333 332 333 334 333 331 330 331 332 332 332 332 331 331 332 333 332 333 335 336 335 336 335 334 334 334 333 332 332 332 331 330 329 329 328 328 327 323 318 317 318 317 316 317 318 318 316 315 313 312 312 311 311 309 307 306 304 303 304 306 308 310 311 311 311 312 312 312 312 312 313 313 312 312 313 313 314 314 314 314 314 313 312 312 311
333 332 333 332 331 330 330 331 332 331 331 332 332 331 331 331 329 328 332 335 335 335 334 333 334 335 334 333 332 332 332 331 330 329 328 328 327 323 319 318 319 317 317 318 319 318 318 317 314 312 312 311 310 308 306 305 302 301 302 303 305 308 309 309 308 308 307 305 303 303 305 307 307 308 310 311 311 312 312 311 311 311 311 310 310
332 332 332 332 331 330 329 330 331 331 331 331 331 331 331 331 329 329 332 333 333 334 334 334 334 334 334 333 332 332 332 331 331 330 329 328 327 324 321 320 319 318 317 317 318 318 318 317 315 313 312 310 308 306 304 303 300 299 299 299 302 305 307 306 303 301 300 299 298 298 299 301 301 301 305 308 309 310 310 310 309 309 309 309 309
331 331 332 331 331 329 329 330 330 330 331 331 330 329 329 330 330 331 333 333 333 333 334 334 334 333 333 333 333 332 332 332 332 331 330 329 327 326 323 322 321 319 317 317 318 318 317 318 316 314 311 308 307 305 302 300 298 296 295 296 297 300 302 302 299 297 296 296 296 296 297 298 298 298 299 302 304 305 306 307 308 308 307 307 307
330 329 330 331 331 330 329 330 330 330 330 330 329 327 327 328 328 329 331 332 332 332 332 333 333 333 333 333 333 332 332 332 332 331 331 329 328 327 325 324 322 321 319 316 317 318 317 318 316 314 310 307 306 305 301 298 296 294 293 294 294 294 295 296 295 293 293 293 293 294 294 294 294 295 295 295 296 298 301 303 305 306 307 306 306
328 328 328 329 330 329 329 329 329 329 328 327 327 326 326 327 327 327 328 330 331 331 331 331 332 333 333 333 333 333 332 332 332 332 331 330 329 328 326 324 321 321 320 316 316 318 318 317 315 314 310 305 305 304 300 297 295 294 293 293 293 292 292 291 292 291 291 291 291 291 291 291 291 291 291 292 292 293 295 297 299 302 304 305 305
325 326 326 328 328 327 326 327 327 326 326 325 325 325 325 325 326 326 326 328 329 329 330 330 331 331 332 332 333 333 332 332 332 331 331 330 329 328 327 325 321 322 322 317 316 318 318 316 314 312 309 306 304 301 298 297 295 294 294 294 293 292 291 291 291 291 291 291 290 290 290 291 291 290 290 290 290 290 290 291 292 295 298 301 303
322 323 324 324 325 325 324 324 324 324 324 324 324 324 324 324 324 325 325 326 327 327 327 329 330 330 331 332 332 332 331 332 332 331 331 330 329 329 327 326 322 322 323 319 317 318 318 316 313 310 309 308 304 300 298 296 295 294 293 293 293 292 291 291 291 291 290 290 290 290 290 290 290 290 290 289 289 289 289 289 289 290 292 295 298
320 320 321 321 323 324 323 323 323 323 323 322 322 322 322 322 321 322 324 325 325 326 326 328 330 330 331 331 331 331 330 331 331 331 331 330 329 328 327 326 324 322 322 319 316 316 317 316 314 309 307 308 306 301 298 296 294 294 292 292 292 292 291 291 291 291 290 290 290 290 290 290 290 289 289 289 289 288 288 288 288 289 289 290 292
318 318 319 320 321 322 322 321 322 322 321 320 320 320 320 319 317 319 322 323 323 325 326 327 329 330 331 331 330 330 330 330 331 331 330 330 329 328 327 326 324 322 321 318 315 315 316 314 314 310 305 305 306 302 298 295 294 292 292 292 291 291 291 290 291 291 290 289 289 290 289 289 289 289 289 289 289 288 288 288 288 288 288 288 288
316 317 318 319 320 321 320 320 320 320 319 319 319 318 318 318 318 320 322 321 321 323 325 326 328 330 331 331 330 330 330 330 331 330 329 329 329 328 327 325 324 322 319 317 314 314 315 314 312 310 306 303 301 301 299 295 293 292 291 291 291 290 290 290 290 290 289 289 289 289 289 289 289 289 289 288 288 288 288 288 288 287 287 287 287
315 316 317 318 319 319 319 319 318 318 318 318 318 318 318 318 318 320 320 320 320 322 324 325 326 328 329 330 330 329 329 330 330 329 328 329 329 328 326 325 323 320 318 316 315 315 314 313 310 308 308 304 299 298 298 295 292 292 291 291 290 290 289 289 289 289 289 289 289 289 288 288 288 288 288 288 288 288 288 287 287 287 287 286 286
314 315 316 317 318 319 319 318 318 317 318 318 318 317 317 316 317 318 319 319 320 321 323 323 324 326 327 328 328 327 328 329 329 329 328 328 328 328 326 325 323 319 317 315 314 313 312 310 310 306 305 305 302 298 297 295 293 293 292 291 291 290 289 289 289 288 288 288 288 288 288 288 288 288 288 288 288 287 287 287 287 287 286 286 286
314 314 315 316 317 318 319 319 318 317 318 318 317 316 315 314 315 318 318 319 320 320 321 322 322 324 326 327 326 326 328 328 329 329 328 328 327 326 325 325 323 319 316 314 312 312 311 310 311 309 304 301 301 298 297 297 295 293 293 292 292 292 290 289 288 288 287 288 288 288 288 288 288 287 288 287 287 287 287 287 286 286 286 286 285
313 314 314 315 317 318 318 318 318 317 318 317 317 316 315 313 315 318 319 318 318 318 320 320 321 325 327 326 324 326 328 328 329 329 328 328 327 325 324 324 323 321 318 316 313 311 311 310 310 311 307 300 297 296 297 298 296 294 294 295 294 294 294 292 290 288 287 287 288 288 287 287 287 287 288 288 287 287 287 286 286 286 286 286 285
312 313 314 315 316 317 317 317 317 317 317 317 316 316 315 315 316 317 318 317 316 317 319 319 321 324 325 325 325 326 327 327 327 328 329 328 327 325 324 324 323 322 319 318 316 314 313 313 311 310 310 306 300 295 296 298 298 296 297 299 297 298 299 294 291 290 288 288 288 288 288 287 288 288 288 287 286 287 286 286 286 285 285 285 285
312 313 314 314 315 316 317 317 317 317 317 317 316 315 315 315 316 316 315 315 315 317 319 320 321 323 324 324 324 324 325 326 326 328 329 327 326 325 324 325 323 320 317 316 316 315 313 313 312 310 311 312 306 298 296 298 298 297 299 302 300 301 300 294 293 292 289 289 289 288 287 288 288 288 288 287 286 286 286 286 286 285 285 285 285
312 312 313 314 315 316 316 316 316 317 317 317 316 315 315 315 315 315 314 315 315 317 319 320 322 323 323 322 322 323 324 324 326 328 328 325 325 324 323 324 323 320 317 315 314 313 313 313 312 311 311 310 305 300 298 298 299 298 299 301 300 300 298 295 295 294 291 290 289 288 288 287 287 287 287 287 286 286 286 286 285 285 285 285 285
312 312 312 313 314 315 316 316 316 316 316 316 316 315 314 314 314 314 314 315 316 317 318 319 320 321 322 321 321 323 324 324 326 327 326 324 323 323 323 323 322 321 319 317 314 312 312 313 311 310 310 306 302 301 300 299 299 299 298 299 299 298 298 297 297 295 294 293 290 288 288 287 286 287 287 287 286 286 286 285 285 285 285 285 284
311 311 312 312 313 314 315 315 315 316 315 315 315 314 313 313 314 314 314 315 316 318 318 318 318 320 320 320 320 322 323 324 325 325 324 323 322 322 322 322 321 321 319 317 316 314 313 313 311 309 307 303 301 302 302 301 300 300 299 299 299 298 297 297 297 297 296 295 292 290 289 287 287 287 287 287 286 286 286 285 285 285 285 284 284
311 311 311 312 312 313 314 314 315 315 315 315 314 313 312 312 313 314 315 316 316 318 318 316 317 318 318 318 320 322 322 323 323 322 322 322 322 321 321 321 321 320 319 317 316 316 315 314 313 310 307 304 302 303 303 303 303 303 300 299 299 298 297 296 296 297 296 296 295 292 290 288 288 288 287 286 286 286 285 285 285 285 284 284 284
310 310 311 311 312 313 313 314 314 314 314 314 313 312 311 311 312 313 314 316 316 317 317 315 315 316 316 316 318 320 321 321 321 321 321 321 322 322 321 321 320 320 319 317 316 316 314 313 311 309 307 306 304 304 304 305 305 304 301 300 299 299 297 295 295 295 295 295 296 294 291 289 289 289 288 286 286 285 285 285 284 285 284 284 284
Wind_Speed
11 10 11 11 12 13 15 13 9 8 11 13 13 13 13 13 10 12 16 16 17 17 17 17 16 16 16 16 16 17 18 18 18 18 17 16 17 17 17 17 17 18 18 18 19 19 17 17 17 18 19 20 20 21 22 22 22 22 23 23 23 24 25 26 26 26 25 24 25 28 28 27 28 28 27 26 26 27 27 25 24 25 26 24 24
13 12 11 12 13 13 14 13 10 9 11 13 13 13 13 13 11 13 14 15 16 16 16 17 16 15 15 15 16 18 18 18 18 18 17 16 16 17 17 17 17 17 18 18 18 18 17 17 18 19 19 19 20 20 20 20 21 21 21 21 22 23 24 26 26 25 24 23 24 28 29 28 28 28 28 26 26 27 28 27 26 26 27 26 27
14 12 12 14 14 13 14 13 11 11 12 12 13 13 13 13 12 13 13 14 15 15 16 16 16 15 15 15 16 18 18 18 18 18 18 17 17 17 17 18 17 17 17 18 17 17 17 16 17 19 19 19 20 19 19 19 20 20 20 20 20 21 22 24 25 25 24 22 23 26 27 28 28 27 27 27 26 27 28 28 27 27 27 27 28
14 12 13 14 14 13 14 13 12 11 11 12 12 14 14 13 13 13 13 13 13 15 16 16 15 15 15 15 16 17 18 18 18 18 18 18 17 18 18 18 17 17 17 18 17 16 17 17 18 18 18 19 18 18 19 18 18 19 19 20 21 22 23 24 25 25 24 23 23 23 24 25 27 27 26 26 27 27 27 27 27 27 27 28 28
13 11 12 13 12 12 14 13 12 11 10 10 11 13 13 12 12 12 12 11 12 14 16 15 15 15 15 15 15 17 18 18 18 18 18 18 18 18 18 18 18 18 18 18 16 16 18 18 19 18 18 18 18 18 18 17 17 18 20 20 21 23 25 26 25 24 23 23 23 23 23 24 26 26 25 26 27 27 27 26 26 26 26 27 28
13 12 12 11 11 11 13 13 12 11 10 10 11 12 12 11 12 12 11 11 12 14 15 15 15 14 14 14 15 17 18 17 18 18 18 19 19 19 18 18 18 18 18 18 16 16 18 18 19 18 18 17 18 18 17 17 17 19 19 20 23 25 26 26 24 22 21 21 22 22 23 23 24 25 24 25 26 27 26 26 26 26 26 27 28
13 12 12 11 10 11 12 13 12 12 10 10 11 11 11 11 12 12 12 12 12 14 14 14 14 14 14 14 14 16 17 17 17 18 18 19 19 19 18 18 18 19 18 18 18 18 18 19 19 18 18 18 18 17 17 17 17 19 20 23 26 27 27 25 23 22 21 20 21 21 22 23 24 25 24 23 24 25 26 26 27 26 27 27 27
13 11 12 11 10 12 12 12 13 12 10 10 12 12 12 12 12 13 13 12 11 13 13 14 14 13 13 13 13 15 16 16 17 18 18 19 19 19 18 19 19 19 18 18 18 18 19 19 18 18 18 17 17 17 17 17 18 19 21 25 26 26 25 23 23 23 21 21 21 21 22 22 23 24 23 23 23 23 24 25 26 26 27 27 27
13 12 12 11 11 13 12 13 13 12 10 10 11 12 12 13 13 12 13 12 11 13 13 13 14 13 13 12 12 13 15 15 17 19 18 18 18 18 18 19 19 19 18 18 18 18 19 18 18 18 17 16 16 16 17 18 19 20 23 26 26 25 23 22 22 22 22 22 22 22 21 21 22 23 22 23 24 24 24 25 26 26 26 26 27
13 12 12 11 13 14 13 14 13 12 11 10 10 11 12 12 12 12 14 13 11 12 12 12 13 12 12 11 12 12 13 14 16 19 18 18 18 18 18 18 19 18 18 18 18 18 18 17 17 17 17 15 15 16 18 19 19 21 24 26 25 24 22 22 22 22 22 22 22 22 22 21 22 22 21 22 23 24 25 25 25 25 25 26 26
13 13 12 11 14 14 13 13 12 12 12 11 10 10 10 11 12 12 15 13 11 12 12 11 11 11 11 11 11 11 12 13 15 18 18 18 17 17 18 18 18 18 18 18 18 18 17 16 15 15 16 15 16 17 18 19 20 22 25 26 25 23 22 21 22 22 22 21 21 21 21 22 21 21 20 21 22 23 24 23 24 24 24 25 25
13 13 12 11 14 14 14 13 12 12 12 12 10 9 10 11 11 12 14 13 12 12 11 11 10 10 10 10 11 11 12 13 14 17 17 17 17 17 18 18 17 17 18 18 17 17 17 16 15 15 16 16 17 18 19 20 22 24 26 26 25 23 22 21 22 22 22 21 21 20 20 20 21 20 19 20 20 21 22 22 23 24 23 24 25
13 13 12 12 15 15 14 14 12 12 13 12 10 9 10 10 11 12 14 13 12 11 11 10 10 10 10 10 10 11 12 13 14 15 17 18 17 17 17 17 17 17 18 18 17 17 17 17 17 17 17 17 17 18 19 20 22 25 26 26 24 23 22 21 22 22 22 21 21 20 18 18 19 18 18 20 20 20 21 21 22 23 22 24 25
14 13 12 12 14 16 15 14 13 13 13 12 11 10 9 11 11 13 14 14 12 11 11 10 9 9 10 10 10 11 12 13 13 15 16 17 17 17 17 17 16 17 17 17 17 17 18 17 17 17 16 17 17 17 18 20 21 23 25 24 23 22 20 20 21 21 21 21 21 20 18 17 17 18 19 20 20 20 20 21 22 22 23 24 24
14 13 13 13 15 16 15 14 14 13 12 12 11 10 10 11 12 13 14 13 12 11 11 10 9 9 9 10 11 11 12 13 14 14 15 16 17 17 17 16 16 17 17 17 18 18 18 18 17 17 16 17 17 16 17 18 18 19 21 22 21 20 18 18 20 20 20 20 20 20 20 20 18 19 20 20 21 21 22 23 23 23 24 24 23
14 14 13 14 15 16 16 15 15 14 13 13 12 11 10 11 12 12 13 13 12 11 11 10 9 9 9 9 10 11 12 13 14 14 15 15 16 16 16 16 17 17 17 17 17 18 18 18 17 17 17 17 16 16 16 17 17 17 20 23 22 21 19 18 19 19 19 19 19 19 21 22 21 20 20 21 21 22 23 23 22 23 23 23 23
13 14 13 13 14 15 16 15 15 15 14 13 13 12 11 11 11 11 12 12 12 11 11 10 9 9 9 9 10 11 11 12 13 14 15 16 16 16 16 16 17 16 16 16 17 17 18 18 17 17 17 16 16 16 16 16 17 17 20 23 23 22 21 20 20 19 19 19 19 19 19 20 21 21 21 22 21 22 23 22 22 23 23 23 24
13 14 13 13 14 16 16 16 16 16 15 15 14 13 12 12 11 11 11 11 11 11 10 10 9 9 9 9 10 10 11 12 12 13 14 16 16 16 16 16 16 16 16 16 16 17 17 17 17 17 17 17 17 16 16 16 17 18 20 23 25 24 22 21 20 20 20 20 19 19 19 19 19 20 21 22 21 22 23 23 22 23 23 23 25
12 13 13 12 13 14 16 16 16 16 15 15 14 14 13 13 12 12 11 11 11 11 11 10 10 9 9 9 10 10 10 11 11 12 13 14 15 15 15 15 15 15 15 16 16 16 16 17 17 18 17 17 17 17 16 16 18 18 20 24 25 23 21 21 20 20 21 20 19 19 19 19 19 19 20 21 21 21 23 23 23 24 24 23 24
10 12 11 11 12 12 13 14 16 16 16 15 14 14 15 14 13 12 12 12 11 11 11 11 10 9 9 9 10 10 10 10 11 12 12 13 14 15 15 14 15 15 16 16 16 16 16 17 17 18 17 17 17 17 17 17 17 18 20 23 23 20 20 21 21 20 20 20 20 19 19 19 19 19 19 19 20 21 21 23 24 25 25 24 24
9 11 11 11 11 11 12 12 13 14 14 15 14 14 16 15 14 13 13 13 12 12 11 11 11 10 10 10 10 10 10 10 10 11 11 12 13 14 15 15 15 16 16 17 17 17 17 18 18 18 18 18 18 17 17 17 17 17 19 22 21 18 19 20 20 19 19 19 19 18 18 19 19 19 19 20 20 20 21 22 24 25 24 24 25
11 12 12 12 11 11 12 11 12 13 12 13 14 14 16 16 15 14 14 13 13 12 12 12 11 11 11 10 11 10 10 9 10 11 11 12 12 13 15 16 16 17 17 17 17 18 18 18 18 18 19 19 19 18 18 17 17 18 20 22 21 19 19 19 18 18 19 20 20 18 17 18 18 19 20 20 20 21 22 22 23 24 23 23 25
15 16 15 13 13 13 14 13 12 13 12 12 14 14 15 16 15 15 15 14 14 13 13 13 12 12 11 11 11 11 10 10 10 11 12 12 12 13 15 16 17 17 18 18 18 18 18 18 18 18 19 19 19 19 18 18 18 19 21 23 22 20 19 19 20 21 22 21 19 17 16 18 18 19 20 20 20 21 22 23 23 24 23 23 25
16 18 17 15 15 15 14 15 14 12 12 12 13 14 14 15 16 15 16 15 14 14 14 14 13 13 12 11 11 11 12 11 11 11 12 13 14 15 16 16 17 18 18 19 19 19 19 19 19 18 18 18 17 18 18 19 19 20 21 23 24 21 18 18 21 23 23 21 19 16 16 17 18 17 19 19 19 20 20 21 23 23 24 24 24
16 17 16 16 18 18 15 15 16 13 13 12 12 13 13 15 16 16 16 15 15 15 15 15 14 14 13 11 11 12 12 12 12 11 13 14 16 17 17 18 18 19 20 21 21 20 20 19 18 17 18 18 17 17 17 18 18 19 20 21 23 22 19 18 22 24 23 22 22 19 17 17 18 18 19 19 19 20 20 20 22 22 22 23 23
16 17 18 18 19 19 18 17 17 15 13 12 11 12 11 12 15 16 16 15 15 16 16 17 15 14 13 11 12 13 12 13 13 12 12 14 16 16 16 19 21 21 20 20 20 18 17 16 16 17 17 17 17 17 17 18 18 18 19 20 22 23 21 21 23 24 23 24 23 24 22 20 19 19 19 19 19 20 21 22 22 23 23 23 23
17 18 19 19 19 20 19 19 18 16 15 15 12 13 12 10 12 15 15 15 16 18 18 18 18 15 15 13 13 13 13 14 13 12 13 13 14 13 13 18 21 18 16 16 15 13 14 16 17 17 16 16 16 16 16 17 17 17 19 20 21 22 23 23 23 23 23 23 22 24 25 23 21 20 20 19 19 19 21 22 22 23 24 23 23
16 17 18 19 21 21 21 20 19 18 18 17 14 15 16 12 11 13 15 16 15 17 18 19 19 17 16 14 13 14 15 15 15 14 13 13 13 12 13 17 17 15 14 14 13 13 15 17 17 17 16 16 15 15 15 15 15 16 18 20 21 21 22 23 23 22 22 21 20 21 23 24 22 21 21 20 18 18 20 21 20 21 22 21 22
17 17 17 18 20 21 22 21 20 19 18 18 16 16 17 15 13 12 15 17 16 16 17 19 20 19 19 16 14 15 16 16 16 16 15 14 13 13 14 15 14 14 15 16 17 18 19 18 18 17 17 16 15 15 15 15 15 16 18 19 20 21 21 22 22 22 21 20 19 18 19 23 23 20 19 19 19 18 19 19 18 20 21 20 20
19 19 18 17 18 20 22 21 20 19 17 17 16 15 15 16 15 13 13 16 18 16 16 19 20 21 22 21 18 15 17 17 17 17 16 17 16 14 15 15 13 15 17 19 21 21 20 19 18 18 17 17 16 15 15 15 15 16 19 19 18 19 20 21 21 21 21 19 17 16 15 18 22 21 20 18 18 18 17 17 18 19 19 18 19
18 20 20 19 18 20 23 23 20 19 18 17 17 16 15 15 17 18 16 15 16 16 17 19 20 21 20 22 21 16 16 18 18 18 17 19 18 16 17 16 13 16 19 21 24 22 20 19 19 18 17 17 17 16 15 15 15 17 19 19 18 18 20 21 21 21 20 19 17 16 15 15 17 19 20 19 18 18 18 18 17 17 17 16 17
18 20 20 19 19 21 24 25 22 22 21 19 19 18 17 16 17 21 21 16 14 15 18 19 21 21 19 20 22 19 16 18 20 19 20 20 17 19 23 19 17 18 20 23 26 24 21 20 19 19 18 17 17 16 15 15 16 18 18 18 18 19 20 20 21 21 20 19 18 17 16 14 13 14 17 18 18 18 19 18 18 16 16 15 16
19 19 19 19 20 21 24 26 25 24 23 21 21 20 20 20 18 18 20 19 17 16 16 19 20 21 21 21 22 21 18 18 19 20 24 22 17 22 27 24 23 22 22 25 27 25 23 21 19 19 19 18 18 17 15 15 17 18 18 17 17 18 18 19 20 20 20 19 18 17 16 14 13 12 13 14 15 16 17 18 18 17 15 14 14
17 17 20 20 19 20 22 24 24 24 23 22 22 21 20 21 21 19 18 19 18 17 17 18 18 18 21 24 23 23 20 18 19 21 25 25 20 23 28 27 25 23 24 27 27 26 24 22 21 20 20 19 18 18 16 16 17 18 17 15 15 16 18 19 19 19 18 18 17 16 15 14 13 12 11 10 11 12 14 15 16 17 16 14 13
18 18 21 22 20 19 21 22 23 23 22 22 22 20 18 19 21 20 20 21 17 17 20 21 22 20 19 22 25 25 23 20 20 22 25 27 26 27 29 29 27 25 27 28 28 28 26 24 23 23 22 20 19 18 16 15 16 16 15 13 13 15 17 18 18 17 17 16 16 15 14 13 13 12 11 10 9 9 9 10 12 14 15 15 14
20 19 20 22 21 20 22 22 23 24 22 22 23 20 18 18 18 18 20 22 18 18 22 23 25 26 21 21 24 26 25 23 22 23 25 26 28 29 31 32 30 29 29 30 31 30 28 27 25 24 24 23 21 18 15 14 14 15 13 11 12 14 16 17 16 16 15 15 14 14 13 12 12 11 10 10 9 9 8 7 8 9 11 13 13
21 20 20 23 23 21 24 24 24 26 23 22 25 23 21 19 18 17 18 20 19 18 23 23 22 26 26 24 25 25 25 25 25 24 24 26 28 30 32 34 34 32 31 32 33 31 30 29 27 25 24 24 22 19 16 15 15 16 15 14 14 14 14 15 15 15 14 14 13 13 12 10 10 10 10 10 9 9 8 7 6 6 8 10 11
22 23 22 24 24 22 25 27 25 26 23 21 24 25 26 24 23 20 18 20 19 18 22 24 23 24 25 25 24 24 24 26 27 26 26 27 28 30 33 35 36 34 33 34 34 32 31 30 28 27 24 24 24 22 19 18 17 17 17 15 15 14 14 14 13 12 12 13 12 11 11 10 9 9 9 9 9 8 7 6 6 5 6 7 7
23 23 23 23 23 22 25 28 28 26 23 21 23 25 26 26 26 22 19 21 21 20 22 24 26 28 27 25 22 21 24 26 26 26 26 26 28 32 34 36 38 36 35 35 34 34 33 31 30 28 25 24 24 24 22 21 19 18 16 14 14 14 13 14 12 11 12 12 11 10 10 9 9 9 9 8 7 7 6 6 5 5 6 5 5
22 21 22 23 23 23 25 28 30 27 22 21 22 23 22 21 21 20 20 21 22 25 26 23 24 29 30 28 25 23 25 26 25 25 24 25 29 33 34 36 38 37 37 37 36 36 35 33 32 30 27 24 23 24 24 23 21 17 14 13 13 13 12 12 11 11 12 11 10 9 9 9 8 8 7 7 6 5 5 5 5 6 6 5 5
20 20 23 25 25 25 26 28 29 28 24 22 23 23 23 22 21 20 19 20 22 26 28 26 25 29 30 29 29 27 27 28 29 27 25 26 28 31 33 35 36 38 38 38 38 37 36 34 32 30 29 27 25 24 25 25 21 16 12 10 9 10 10 10 10 11 12 11 10 10 9 8 7 6 6 5 5 5 5 5 5 5 5 5 5
20 22 24 25 25 25 26 26 26 28 26 24 26 28 28 26 23 21 19 19 23 25 26 28 30 30 30 30 29 29 29 30 32 30 28 28 28 29 31 33 35 37 38 37 36 36 36 35 34 31 29 30 28 27 28 24 17 14 13 10 7 5 6 6 8 10 11 10 10 10 9 8 7 6 5 5 4 4 4 4 5 4 5 5 5
19 21 22 22 23 24 24 24 23 26 27 26 29 31 30 28 23 19 17 18 20 23 22 23 28 31 32 32 30 30 30 30 31 31 30 30 29 28 29 32 34 36 37 35 34 35 37 36 36 34 31 29 27 28 29 22 14 15 13 7 6 4 3 5 7 9 10 10 9 9 8 7 7 6 5 5 4 5 4 4 4 4 4 4 4
17 19 21 22 23 25 25 24 24 25 26 27 29 29 27 26 21 16 16 18 18 24 25 23 26 31 32 32 31 31 31 30 30 31 32 32 30 28 28 30 35 38 39 39 38 37 39 39 37 37 34 29 26 27 29 21 17 19 12 4 7 6 3 7 10 8 9 10 8 8 8 8 7 6 6 6 5 5 5 4 4 3 3 3 3
18 20 22 23 23 23 24 24 23 23 24 26 28 27 24 21 20 19 19 20 19 23 28 28 30 33 32 33 33 32 31 30 31 32 33 33 33 31 28 29 34 39 41 42 43 41 41 41 40 39 37 34 30 28 28 22 19 22 13 4 7 4 3 9 12 7 8 8 8 8 9 8 7 7 7 7 6 6 6 5 4 3 3 2 2
19 21 22 22 21 20 22 22 21 21 21 23 27 28 24 22 23 22 20 20 20 25 32 34 35 35 33 33 32 31 31 32 33 32 33 33 33 31 28 29 33 39 41 41 42 41 42 42 41 41 39 37 35 29 28 25 21 22 18 8 5 3 4 13 9 4 6 7 7 9 9 10 9 8 8 8 8 7 7 6 5 4 3 3 3
17 18 18 19 19 18 19 21 20 19 19 20 24 26 24 22 22 21 20 21 19 24 33 35 35 36 34 32 31 30 32 34 34 33 32 31 31 29 27 28 32 37 39 38 39 40 42 43 41 41 40 37 35 30 28 29 24 23 24 16 7 2 9 14 7 4 5 5 8 9 9 11 11 9 9 9 9 9 8 8 6 6 5 4 4
13 14 15 16 18 18 18 20 19 18 18 19 22 25 25 22 20 20 21 22 18 19 26 29 30 34 33 32 30 31 33 34 34 33 32 31 30 28 26 27 31 36 38 39 39 39 40 42 41 40 40 36 34 30 28 31 27 23 25 21 8 5 10 11 9 8 5 3 6 8 8 11 11 9 9 10 10 10 9 9 8 7 7 6 5
12 14 16 16 18 18 18 19 19 18 18 20 22 26 27 22 18 19 20 20 19 17 19 22 27 31 32 31 30 31 33 33 34 33 32 32 31 29 28 29 32 35 37 37 38 39 40 42 41 40 39 35 34 30 26 30 30 23 24 23 10 6 9 8 9 9 4 3 5 6 8 10 10 10 10 10 10 10 11 10 10 10 9 8 7
12 14 15 16 17 18 18 19 20 19 18 20 23 26 28 23 18 19 20 20 19 19 18 19 25 30 30 30 31 32 34 34 34 33 32 32 32 30 29 30 33 34 35 36 37 40 40 41 42 42 41 38 34 29 25 29 33 24 22 24 15 9 9 8 9 9 6 5 4 6 11 11 8 9 12 12 12 12 12 12 11 11 11 10 9
10 12 13 14 15 17 18 19 20 19 18 20 22 25 28 25 20 20 21 20 20 23 22 20 24 28 28 29 31 32 33 34 35 34 34 33 32 31 31 32 34 34 35 36 37 40 40 39 41 42 41 39 34 30 25 26 30 25 22 23 20 15 12 9 11 12 9 6 4 6 11 11 8 8 11 13 13 12 13 12 12 12 13 12 11
Wind_Direction
152 151 146 144 130 133 134 138 152 133 117 119 116 118 117 113 115 104 99 99 98 94 87 81 77 72 69 67 69 76 80 82 83 85 87 87 88 88 89 89 87 86 86 86 86 86 84 85 84 82 78 76 76 77 79 80 80 80 80 80 82 83 84 84 79 68 60 56 60 62 59 58 57 56 56 57 58 60 60 58 57 54 53 52 54
150 149 145 148 138 137 139 141 146 129 117 119 120 121 117 114 110 99 97 98 97 94 88 83 78 74 71 68 69 76 79 80 82 85 87 88 90 90 91 91 90 88 87 87 87 87 84 82 82 80 79 80 79 77 78 80 79 80 81 83 85 86 85 83 79 72 64 55 56 60 60 59 58 57 56 57 58 58 58 59 59 59 56 54 56
141 145 147 152 145 142 141 142 138 126 124 122 119 116 112 111 106 99 98 97 96 94 90 86 81 78 75 72 71 77 79 79 81 84 87 89 92 92 93 94 93 91 91 90 89 93 92 85 82 80 81 80 78 77 77 78 79 81 82 84 86 87 87 85 81 76 71 64 60 61 60 59 58 58 57 58 59 59 60 61 61 61 59 56 57
138 141 150 152 147 145 141 143 140 128 128 124 119 115 112 110 105 102 99 98 97 97 94 88 84 80 77 75 74 79 80 79 81 84 87 89 93 95 95 96 95 94 94 93 90 93 94 89 85 82 83 81 79 77 75 76 78 81 83 85 87 89 88 85 81 75 73 70 66 64 62 61 59 58 59 59 60 61 62 63 63 62 61 59 58
140 142 150 150 144 148 144 143 143 132 129 132 127 120 115 112 110 107 103 101 101 101 98 92 86 81 79 76 75 80 82 81 82 84 87 90 93 96 97 97 97 95 96 96 93 93 92 89 88 85 83 82 80 79 76 76 77 82 85 85 88 90 88 82 77 73 72 71 69 67 65 64 61 59 60 61 61 63 64 64 64 64 62 61 60
142 145 148 148 145 150 147 142 142 133 131 141 138 128 122 121 117 112 107 103 105 104 99 94 88 83 80 76 75 79 82 82 84 86 89 92 95 97 98 97 97 98 99 99 98 96 93 89 88 86 82 81 82 82 81 79 81 85 83 84 86 87 84 79 76 75 73 71 70 68 67 65 64 62 61 63 63 64 65 65 65 64 63 63 63
142 147 148 145 149 155 151 143 142 136 133 140 143 140 133 129 121 115 109 105 109 107 101 97 92 86 81 76 76 80 84 84 86 89 90 93 95 98 99 99 99 100 100 98 95 92 90 88 87 87 84 83 86 85 84 83 85 83 81 84 84 81 77 75 76 77 75 72 71 70 68 67 67 64 62 65 65 66 66 66 66 65 65 65 65
146 147 147 145 157 162 152 145 143 139 138 137 141 144 139 134 124 118 114 112 115 110 104 99 94 89 83 76 74 80 86 87 89 91 92 93 95 98 98 101 102 101 101 99 96 92 90 90 90 90 88 88 89 86 85 86 85 83 85 87 83 79 77 76 75 74 74 72 72 71 70 69 68 66 64 65 67 67 67 67 66 66 66 66 65
154 150 150 152 164 164 150 146 146 142 144 140 137 141 140 135 125 121 119 117 119 114 107 102 96 91 86 79 75 79 85 89 93 94 94 95 96 97 99 101 102 101 101 100 99 96 94 94 94 94 94 94 91 87 86 85 84 87 92 89 84 82 81 80 76 74 75 74 73 73 73 71 70 68 66 67 68 68 69 68 67 66 66 66 65
158 154 152 157 164 163 152 148 149 147 147 143 137 140 142 135 128 125 125 123 124 118 111 106 100 95 90 81 75 77 84 90 96 98 97 97 98 99 101 103 104 103 101 100 99 99 98 97 96 97 97 95 92 89 87 85 87 93 94 91 87 84 80 79 78 76 76 75 74 73 74 73 72 70 69 69 69 71 71 69 69 67 66 66 65
161 156 152 156 164 161 153 151 153 153 151 148 142 143 146 139 131 129 130 128 128 122 115 111 104 100 95 86 78 78 84 89 98 101 100 100 101 102 104 107 107 104 103 103 101 100 99 98 99 100 98 96 95 93 89 89 94 96 93 89 86 84 81 80 78 77 77 76 75 74 74 74 73 72 73 72 71 73 73 72 72 69 68 68 67
163 157 158 161 166 162 157 158 158 157 154 152 147 147 149 144 136 133 133 130 131 127 122 117 110 105 99 92 85 83 86 91 101 104 104 104 104 105 106 109 108 105 105 105 102 101 99 100 100 100 99 99 99 95 92 95 99 97 92 89 85 83 84 83 79 77 78 76 75 75 75 74 75 75 77 77 75 76 75 75 76 73 72 71 71
165 161 167 168 169 166 163 163 161 162 158 155 153 151 151 149 141 138 137 134 135 133 129 123 114 109 103 98 91 88 90 94 102 108 109 108 107 108 109 110 111 110 109 107 105 103 101 99 99 99 98 100 102 99 98 101 101 98 95 91 88 84 83 82 78 77 76 74 73 73 74 75 77 78 80 80 77 79 78 78 80 77 75 74 73
167 166 170 169 173 173 169 167 166 166 161 160 160 155 155 155 146 141 139 138 141 138 134 127 117 113 107 102 94 91 93 97 104 109 111 112 111 111 111 112 113 112 110 108 106 105 103 102 102 101 101 105 105 101 101 104 104 100 97 94 91 87 83 82 78 76 75 73 71 70 72 76 78 76 78 78 75 76 77 79 80 78 75 73 71
170 168 169 171 177 177 174 172 172 171 168 166 165 161 160 161 152 145 144 143 145 142 138 132 124 117 111 105 99 97 97 101 105 107 110 112 113 112 113 114 114 112 111 110 109 108 106 106 105 103 107 109 107 103 102 104 104 100 98 96 93 89 83 81 80 79 76 73 70 68 67 70 75 76 76 77 77 77 78 78 77 75 73 69 67
176 172 169 172 178 179 177 178 178 176 175 173 171 168 163 164 157 151 150 148 147 146 142 137 132 125 119 113 106 102 102 105 107 109 109 110 112 113 115 114 113 113 112 112 111 111 109 107 105 105 112 112 108 105 102 101 101 101 100 95 90 86 81 79 79 78 75 72 71 70 65 63 69 75 78 79 78 79 79 78 76 73 71 69 68
182 179 173 173 177 179 179 182 183 181 182 180 178 174 169 170 164 158 157 152 150 150 148 143 139 135 128 123 115 107 107 109 110 112 113 113 113 113 115 115 115 115 116 114 113 112 111 110 104 107 115 113 110 107 104 100 99 103 102 95 89 83 80 78 77 76 74 74 74 72 68 63 65 69 75 78 78 80 78 76 77 75 72 71 68
186 185 182 179 178 183 182 185 187 185 186 185 184 181 177 177 171 166 164 159 156 155 153 151 148 143 139 133 124 114 112 113 114 117 118 118 117 117 119 119 121 121 120 118 115 112 111 111 105 110 117 115 113 110 107 102 100 105 104 95 87 80 77 78 77 77 76 75 76 72 68 66 67 67 68 71 75 80 78 76 77 76 71 69 66
192 191 190 186 184 186 185 189 189 188 189 187 187 188 186 184 180 173 170 168 163 161 160 159 157 156 152 141 129 118 115 116 117 118 120 122 122 124 124 122 121 119 118 116 115 112 111 111 109 114 118 117 116 113 109 105 104 105 104 95 84 77 75 75 76 77 75 74 75 75 72 70 71 71 67 68 72 74 73 71 73 71 67 65 63
195 193 194 190 189 189 189 193 190 190 191 187 189 190 192 190 187 181 176 176 172 169 170 169 168 169 162 147 135 124 119 119 121 122 124 126 127 127 126 124 121 118 116 116 116 115 114 112 112 114 115 115 114 113 110 107 107 107 106 93 80 79 77 74 76 76 75 74 73 74 76 74 72 73 72 73 75 73 69 68 70 70 67 66 64
192 190 194 192 193 192 192 195 192 193 192 189 192 193 195 194 194 191 183 182 181 178 179 178 176 177 170 155 142 129 122 123 129 131 130 130 131 132 131 128 124 120 119 118 117 115 114 112 112 112 111 111 109 109 108 107 107 110 106 90 79 82 82 77 76 74 73 75 74 74 75 75 74 75 76 77 78 77 74 71 72 73 72 71 68
196 195 197 196 196 197 198 197 194 195 193 192 193 196 198 196 197 197 192 191 189 185 185 186 182 179 176 161 146 137 130 131 138 137 136 137 136 134 131 128 125 123 121 119 117 115 113 112 112 113 112 112 110 108 107 106 108 110 106 93 84 84 85 81 79 82 84 84 82 79 78 79 80 81 81 80 79 78 79 78 77 77 76 75 72
200 202 202 200 198 201 203 202 201 197 195 198 196 198 199 198 200 199 197 197 196 191 189 188 185 183 180 169 155 149 145 147 152 149 143 139 137 135 131 128 126 124 122 118 115 113 111 111 112 114 114 114 113 113 112 110 108 109 105 99 94 91 91 86 84 91 93 92 89 87 88 87 87 87 87 86 84 83 84 83 82 79 75 72 70
200 202 202 199 196 200 202 203 205 201 199 202 201 201 201 201 201 201 199 200 200 195 193 193 191 189 185 179 169 157 157 169 172 157 146 142 140 138 133 130 126 123 121 117 114 112 111 112 113 114 114 113 113 115 115 114 111 110 107 106 102 99 100 95 91 94 93 93 91 90 93 91 88 87 86 86 88 89 88 87 83 78 74 70 68
199 200 202 199 197 199 201 203 204 204 205 206 208 206 205 204 203 203 202 202 202 196 195 197 198 196 189 187 178 162 162 179 178 155 147 149 145 140 136 133 129 126 123 120 117 116 115 114 114 115 117 117 116 116 116 116 115 115 114 112 110 106 104 102 100 99 96 95 93 89 88 88 88 86 85 85 86 89 89 89 85 79 76 73 70
198 199 202 202 199 200 201 203 201 201 207 209 212 209 207 209 208 207 206 206 203 201 202 202 202 200 194 191 182 171 166 170 171 161 154 154 148 143 142 140 136 131 128 125 123 122 120 119 120 122 124 125 124 122 121 120 120 122 123 121 118 114 110 108 106 104 102 101 98 91 85 82 84 86 87 86 85 87 87 85 82 80 78 75 72
198 200 203 205 203 203 203 202 202 205 209 208 210 212 210 211 215 214 212 211 207 207 210 209 207 203 199 196 188 180 173 169 172 172 165 161 156 153 155 150 142 136 136 135 131 128 127 127 128 127 127 126 125 124 121 120 120 123 128 127 124 122 118 115 111 108 107 107 104 97 90 81 79 82 83 84 85 87 84 79 76 76 75 73 72
197 199 201 205 204 204 205 203 204 208 209 207 210 216 215 214 222 223 218 215 212 211 212 213 212 210 205 199 194 187 179 177 179 181 178 174 169 166 166 158 149 147 149 145 141 138 135 132 131 129 129 128 125 124 120 117 119 124 130 130 128 126 124 121 116 111 111 112 109 104 101 91 80 78 79 78 78 80 78 77 78 77 75 74 73
197 198 199 205 204 203 207 206 202 206 208 207 211 217 216 215 218 223 223 218 215 215 214 215 215 215 213 206 200 196 190 185 183 185 185 184 179 171 169 166 160 157 154 154 152 146 139 135 133 132 132 130 129 128 124 120 122 127 130 129 128 129 127 124 121 116 114 114 112 109 111 104 92 84 79 76 74 73 75 75 76 78 77 74 73
201 199 199 201 199 198 205 205 202 206 209 208 210 212 215 217 214 212 222 223 218 217 218 217 214 214 217 215 207 201 201 196 189 188 188 187 184 178 174 170 167 164 162 163 160 151 144 142 139 137 135 134 133 132 128 124 125 131 132 129 127 130 130 127 124 122 118 116 114 112 116 114 105 95 85 79 78 76 77 76 73 74 76 75 74
202 199 200 199 195 196 204 206 201 205 209 210 212 212 215 222 224 218 216 224 224 221 220 219 214 210 215 217 210 203 204 204 198 192 192 191 188 183 177 172 171 171 170 167 163 158 154 151 145 142 142 140 138 134 130 125 127 133 134 130 128 131 132 130 127 125 122 118 114 110 111 113 109 100 90 83 80 79 79 78 75 74 75 74 73
204 202 202 201 198 200 209 210 206 207 209 211 215 219 222 226 230 226 217 216 220 221 220 219 218 216 216 214 210 206 203 206 205 200 198 196 193 188 182 178 177 176 174 172 169 165 160 156 151 148 147 143 140 136 131 128 130 134 134 131 131 133 133 133 130 128 125 120 115 110 108 105 101 99 97 92 84 82 81 77 75 75 74 73 71
208 207 202 201 201 203 210 211 209 210 211 214 221 227 230 227 228 228 222 215 212 217 221 221 221 222 219 213 209 206 205 207 207 206 204 201 198 194 192 189 184 181 181 179 176 170 164 162 159 154 150 146 144 140 135 133 134 135 133 130 131 132 133 134 132 130 126 121 118 115 113 109 103 99 103 103 98 96 93 84 78 75 74 73 71
205 205 203 203 202 203 207 209 210 212 217 222 224 229 230 227 226 227 228 223 215 215 221 223 222 221 219 218 215 210 209 210 209 210 206 204 204 200 199 197 188 185 188 184 179 174 170 167 165 159 154 151 148 145 141 136 136 137 134 130 130 132 134 134 133 130 128 126 126 123 121 118 113 108 105 105 106 107 106 99 90 80 75 73 71
202 202 204 204 203 203 206 208 210 213 216 218 217 221 224 221 224 225 228 230 226 223 225 226 224 220 218 218 214 211 213 213 211 212 208 207 209 204 201 199 190 189 191 186 182 180 175 171 168 163 157 153 149 146 142 137 137 139 135 131 132 133 136 135 133 132 131 132 132 131 130 128 122 116 112 108 105 106 107 110 105 93 84 76 72
202 204 204 203 203 205 210 208 208 210 210 215 215 213 214 215 219 223 226 227 227 229 227 226 226 221 217 216 213 213 217 216 212 211 209 209 209 205 202 200 195 195 196 191 189 186 179 174 170 167 162 157 151 145 141 137 137 139 137 134 134 136 137 137 137 136 135 136 135 134 133 132 128 123 119 115 109 107 106 107 109 108 99 88 79
204 206 204 207 206 204 214 212 210 215 212 217 221 214 213 213 213 219 224 223 223 229 226 222 224 222 220 221 220 220 221 217 216 213 208 208 209 206 204 202 201 200 200 196 194 190 184 179 172 169 167 162 155 149 145 143 143 147 147 144 140 139 140 140 141 140 140 139 137 134 133 132 130 127 122 117 111 107 105 102 101 104 106 100 93
209 210 208 212 209 202 214 217 214 218 214 214 220 220 220 219 220 222 221 220 220 225 226 221 220 220 218 216 216 221 223 220 218 215 209 209 209 206 205 204 204 202 200 198 195 191 187 183 177 171 169 166 162 157 154 152 150 151 150 148 147 146 146 145 142 142 145 144 141 138 135 134 131 128 125 121 115 110 104 101 99 94 97 99 100
211 210 208 210 206 201 212 219 215 214 210 209 215 221 224 226 228 226 220 220 219 218 222 224 223 221 217 216 212 215 221 218 213 211 212 213 208 204 205 205 205 204 199 195 192 189 187 184 180 174 169 168 167 163 159 156 153 150 150 149 150 151 150 149 148 151 152 147 144 141 139 137 133 130 127 124 120 116 111 104 101 97 94 95 98
208 204 203 205 202 200 207 215 216 210 203 202 209 214 217 219 220 217 215 219 218 215 217 219 221 220 221 223 219 215 216 211 205 206 211 214 209 204 204 205 206 203 197 193 192 191 189 186 181 177 170 164 164 165 162 157 151 144 144 146 149 153 154 156 158 159 155 148 146 146 145 141 137 135 130 125 124 120 120 115 108 104 98 97 98
204 199 200 203 202 200 203 210 212 208 202 200 205 207 207 208 207 207 214 216 212 212 215 216 218 220 222 224 223 222 221 214 210 211 213 218 215 207 204 204 204 202 197 194 193 191 190 187 181 178 175 169 164 165 163 157 148 139 138 136 139 151 158 161 164 165 161 157 157 155 153 150 144 140 134 129 130 128 127 125 120 117 112 104 102
202 200 201 203 202 200 203 206 205 204 203 203 207 210 212 212 209 207 212 213 209 211 215 218 221 223 223 224 226 227 225 222 220 220 220 220 216 210 207 207 205 201 198 194 192 190 188 187 183 178 177 177 172 167 164 159 152 147 144 136 129 144 160 168 176 177 174 168 166 164 160 159 155 148 144 139 139 141 141 141 134 126 125 120 113
203 201 202 202 200 201 203 203 200 202 202 205 212 216 217 217 213 209 210 209 211 212 213 215 219 223 225 225 229 229 225 224 225 222 220 216 212 211 210 209 207 202 197 194 192 190 189 189 188 184 178 175 172 171 170 165 158 149 143 146 156 154 173 193 195 191 184 177 171 172 170 169 167 158 154 158 158 162 160 155 151 138 133 131 125
200 200 201 200 200 202 202 200 200 201 201 206 213 215 217 217 214 212 210 208 211 212 210 212 216 220 224 227 229 226 221 221 223 220 217 214 214 215 212 210 209 205 200 197 194 192 192 191 190 189 183 173 169 175 177 174 168 160 150 162 171 170 217 192 181 186 189 183 174 178 180 178 178 167 166 180 182 182 177 169 165 154 146 141 134
199 201 200 200 201 202 202 201 200 201 201 207 212 210 209 207 204 206 207 208 214 212 211 215 219 220 222 224 224 221 219 220 219 216 215 214 215 218 216 213 211 206 202 201 200 198 197 196 194 193 190 185 179 179 183 187 187 179 172 156 163 200 236 159 156 173 188 189 186 189 189 183 183 178 185 199 196 191 191 184 181 175 171 170 157
202 205 203 201 202 202 202 201 201 202 200 204 210 209 204 199 199 202 202 204 209 209 210 214 218 218 219 220 220 220 219 217 214 213 214 215 217 217 216 216 212 204 200 200 200 199 199 198 197 195 196 196 188 179 186 194 194 192 196 199 195 246 169 149 149 161 175 192 198 196 197 192 189 187 196 206 202 202 203 198 200 200 200 206 201
203 204 202 202 202 202 201 200 201 203 199 199 206 207 201 198 201 205 207 207 208 209 211 213 216 217 218 219 220 221 217 211 211 213 214 215 216 216 215 216 213 205 201 199 198 199 200 199 199 199 199 196 188 181 187 193 193 200 209 211 214 203 158 158 159 143 155 194 202 202 208 204 199 197 202 209 207 210 213 210 211 212 218 225 221
199 194 196 200 201 202 201 201 201 202 199 198 202 205 203 199 202 210 216 217 216 215 213 214 218 219 220 220 219 218 215 210 210 212 212 213 214 214 215 213 210 207 205 204 203 201 201 200 200 201 199 194 190 188 189 191 193 200 207 210 215 177 169 172 172 164 152 162 185 195 205 207 208 203 204 212 211 214 218 218 217 220 227 231 227
191 194 199 203 203 202 201 201 202 202 201 200 200 207 209 203 203 211 218 220 219 218 214 215 220 221 221 220 218 217 215 210 209 210 210 211 213 214 214 212 211 210 208 208 208 206 203 202 201 200 198 195 194 195 193 194 197 199 203 208 208 168 175 187 188 186 177 153 169 183 183 193 208 209 206 209 211 215 219 222 225 226 230 231 231
188 198 201 202 201 201 202 203 204 203 201 199 202 210 212 207 208 213 215 217 215 214 212 211 216 217 217 218 217 215 213 209 208 210 212 213 215 217 216 215 214 213 211 209 209 208 208 208 205 201 199 198 198 199 199 202 204 204 205 205 199 178 175 186 194 197 194 180 172 175 177 181 191 202 207 208 211 218 223 228 232 231 231 233 234
186 193 194 196 197 198 202 204 204 204 201 199 202 211 213 211 211 213 214 215 213 212 212 209 211 213 213 214 214 214 214 213 213 213 214 215 217 218 218 218 216 216 214 210 209 210 210 210 207 204 202 201 202 202 203 207 207 207 209 206 203 199 190 190 196 194 192 189 166 158 173 182 182 186 200 208 214 221 227 233 236 235 234 235 238